EHI
2 4 7 11 17 25 27 24 27 38 59 82 92 91 86 80 69 51 29 14 12 19 22 18 11 5 2 1 0 0 0 0 0 0 0 0 0 0 0 0 0 0 0
1 2 5 9 15 22 25 28 32 38 58 80 92 92 89 85 77 64 45 25 16 17 20 17 10 5 1 0 0 0 0 0 0 0 0 0 0 0 0 0 0 0 0
0 0 2 5 8 13 21 30 37 43 55 74 88 92 90 87 82 73 57 37 20 15 16 13 8 3 0 0 0 0 0 0 0 0 0 0 0 0 0 0 0 0 0
0 0 0 1 3 6 11 21 34 44 52 67 83 90 87 81 76 68 56 40 24 15 12 9 5 1 0 0 0 0 0 0 0 0 0 0 0 0 0 0 0 0 0
0 0 0 0 1 2 3 10 23 35 45 58 73 79 76 71 65 57 46 37 28 19 13 9 5 1 0 0 0 0 0 0 0 0 0 0 0 0 0 0 0 0 0
0 0 0 0 0 0 0 4 12 22 31 42 54 60 58 54 49 40 33 30 28 23 17 12 6 1 0 0 0 0 0 0 0 0 0 0 0 0 0 0 0 0 0
0 0 0 0 0 0 0 2 6 10 16 23 31 36 35 31 26 23 20 20 22 20 16 11 5 1 0 0 0 0 0 0 0 0 0 0 0 0 0 0 0 0 0
0 0 0 0 0 0 0 1 2 4 6 10 13 14 13 11 10 10 11 12 13 12 10 7 3 1 1 1 0 0 0 0 0 0 0 0 0 0 0 0 0 0 0
0 0 0 0 0 0 0 0 1 2 2 2 3 2 2 3 3 4 5 5 5 5 4 3 2 1 2 1 0 0 0 0 0 0 0 0 0 0 0 0 0 0 0
0 0 0 0 0 0 0 0 1 1 1 0 0 0 1 1 1 2 2 2 1 1 1 1 1 1 1 1 0 0 0 0 0 0 0 0 0 0 0 0 0 0 0
0 0 0 0 0 0 0 0 0 0 0 0 0 0 0 0 1 2 2 2 1 0 0 0 0 0 0 0 0 0 0 0 0 0 0 0 0 0 0 0 0 0 0
0 0 0 0 0 0 0 0 0 0 0 0 0 0 0 0 1 1 1 1 1 0 0 0 0 0 0 0 0 0 0 0 0 0 0 0 0 0 0 0 0 0 0
0 0 0 0 0 0 0 0 0 0 0 0 0 0 0 0 0 0 0 0 0 0 0 0 0 0 0 0 0 0 0 0 0 0 0 0 0 0 0 0 0 0 0
0 0 0 0 0 0 0 0 0 0 0 0 0 0 0 0 0 0 0 0 0 0 0 0 0 0 0 0 0 0 0 0 0 0 0 0 0 0 0 0 0 0 0
0 0 0 0 0 0 0 0 0 0 0 0 0 0 0 0 0 0 0 0 0 0 0 0 0 0 0 0 0 0 0 0 0 0 0 0 0 0 0 0 0 0 0
0 0 0 0 0 0 0 0 0 0 0 0 0 0 0 0 0 0 0 0 0 0 0 0 0 0 0 0 0 0 0 0 0 0 0 0 0 0 0 0 0 0 0
0 0 0 0 0 0 0 0 0 0 0 0 0 0 0 0 0 0 0 0 0 0 0 0 0 0 0 0 0 0 0 0 0 0 0 0 0 0 0 0 0 0 0
0 0 0 0 0 0 0 0 0 0 0 0 0 0 0 0 0 0 0 0 0 0 0 0 0 0 0 0 0 0 0 0 0 0 0 0 0 0 0 0 0 0 0
0 0 0 0 0 0 0 0 0 0 0 0 0 0 0 0 0 0 0 0 0 0 0 0 0 0 0 0 0 0 0 0 0 0 0 0 0 0 0 0 0 0 0
0 0 0 0 0 0 0 0 0 0 0 0 0 0 0 0 0 0 0 0 0 0 0 0 0 0 0 0 0 0 0 0 0 0 0 0 0 0 0 0 0 0 0
0 0 0 0 0 0 0 0 0 0 0 0 0 0 0 0 0 0 0 0 0 0 0 0 0 0 0 0 0 0 0 0 0 0 0 0 0 0 0 0 0 0 0
0 0 0 0 0 0 0 0 0 0 0 0 0 0 0 0 0 0 0 0 0 0 0 0 0 0 0 0 0 0 0 0 0 0 0 0 0 0 0 0 0 0 0
0 0 0 0 0 0 0 0 0 0 0 0 0 0 0 0 0 0 0 0 0 0 0 0 0 0 0 0 0 0 0 0 0 0 0 0 0 0 0 0 0 0 0
0 0 0 0 0 0 0 0 0 0 0 0 0 0 0 0 0 0 0 0 0 0 0 0 0 0 0 0 0 0 0 0 0 0 0 0 0 0 0 0 0 0 0
0 0 0 0 0 0 0 0 0 0 0 0 0 0 0 0 0 0 0 0 0 0 0 0 0 0 0 0 0 0 0 0 0 0 0 0 0 0 0 0 0 0 0
0 0 0 0 0 0 0 0 0 0 0 0 0 0 0 0 0 0 0 0 0 0 0 0 0 0 0 0 0 0 0 0 0 0 0 0 0 0 0 0 0 0 0
Wind_Speed
10 10 10 9 9 9 8 7 3 5 5 5 6 5 5 4 4 3 5 4 2 3 4 4 3 3 2 1 0 1 0 1 1 2 3 2 3 4 3 2 1 2 5
10 9 10 10 11 10 10 10 8 4 5 5 5 6 6 5 5 4 4 5 4 3 4 4 3 3 2 1 1 0 0 1 1 1 1 2 4 3 2 2 2 2 3
10 10 10 10 10 10 11 11 11 9 6 6 5 5 5 5 4 4 3 3 3 3 3 3 4 3 4 3 3 3 4 3 3 3 2 2 3 2 3 4 4 3 2
9 9 9 10 10 11 11 12 13 11 7 4 6 8 7 6 5 5 4 4 3 3 3 2 2 3 3 4 5 5 4 5 4 4 3 4 3 2 2 3 2 4 4
11 11 11 10 11 11 11 11 12 11 9 4 3 7 6 6 5 6 6 4 3 3 2 2 2 2 3 4 4 4 4 4 5 4 3 3 2 3 3 2 3 2 2
13 12 12 10 10 10 10 10 10 10 9 5 2 3 6 6 7 7 6 4 3 2 2 1 0 1 2 2 3 3 4 4 4 3 3 2 2 2 2 3 3 3 2
15 13 13 12 11 11 11 10 10 9 9 8 6 5 5 5 5 6 6 5 3 2 2 1 1 1 2 1 1 1 2 4 4 4 3 2 2 1 1 2 3 3 2
14 13 13 11 11 11 11 11 10 9 9 8 8 7 7 5 4 5 4 4 3 2 1 1 2 2 2 1 1 0 2 2 3 3 3 2 2 2 2 3 2 2 2
15 13 13 12 11 11 10 10 9 9 9 8 7 7 6 6 5 5 4 3 3 1 1 2 3 3 2 2 1 1 3 2 1 0 1 1 2 2 2 2 3 3 3
14 13 11 12 11 9 9 10 9 9 8 8 6 6 6 5 5 4 4 2 1 1 1 3 4 4 4 3 1 0 1 1 0 1 1 2 1 2 2 2 2 3 4
14 12 10 10 9 9 10 9 9 8 7 7 6 6 5 5 5 4 3 2 1 0 1 3 4 4 5 5 4 2 2 2 2 3 4 4 3 2 2 2 2 3 3
12 11 10 9 9 9 9 9 8 7 7 6 5 5 5 5 4 4 3 2 2 2 3 4 5 4 5 5 6 5 3 3 3 2 2 2 3 3 3 2 3 3 3
9 9 8 8 8 7 7 7 7 6 6 5 4 4 4 4 3 3 3 3 3 4 4 4 5 4 3 3 4 5 5 5 4 3 1 1 1 2 2 2 2 2 2
6 7 6 6 5 5 5 5 5 4 4 4 4 4 3 3 2 2 3 4 4 4 5 4 4 2 1 1 1 2 4 3 3 3 2 0 2 3 3 1 1 0 0
7 6 6 5 5 5 5 5 5 4 4 4 5 5 4 3 3 3 3 4 4 5 5 5 5 6 5 6 7 5 3 2 2 2 2 4 6 6 3 2 2 2 1
8 7 6 6 6 6 6 6 6 6 6 6 6 5 5 5 5 5 5 5 6 7 7 8 8 9 8 12 12 8 6 5 4 2 1 5 6 6 5 4 3 2 1
7 8 7 7 7 6 6 6 6 6 6 6 6 7 7 7 7 7 7 6 7 7 8 8 8 8 9 14 13 11 6 5 5 4 2 1 4 6 5 6 7 5 5
8 8 7 6 7 7 6 6 7 7 7 6 6 7 7 6 6 6 7 7 6 6 6 6 6 6 9 15 14 13 5 5 5 4 4 2 1 1 1 1 3 3 5
6 6 7 6 6 7 6 6 7 7 6 6 6 6 6 6 7 6 6 5 5 5 5 5 6 6 7 14 15 14 5 4 4 3 3 4 4 6 5 3 2 2 2
5 6 6 6 6 5 5 6 6 7 7 6 6 6 5 6 7 7 6 5 5 4 4 4 4 5 5 10 14 14 5 5 4 3 3 7 6 5 5 3 3 3 2
5 5 6 5 4 4 4 6 6 6 5 4 5 5 5 6 6 6 6 6 5 5 5 5 4 4 5 7 11 12 5 5 4 4 3 4 6 6 5 4 3 3 3
5 5 5 5 4 3 4 4 4 3 3 3 3 4 5 6 6 5 5 6 6 6 6 5 5 4 5 7 9 10 8 7 4 4 3 3 6 5 5 3 4 3 3
5 4 5 5 5 4 4 3 2 1 2 3 2 3 5 5 5 6 6 5 6 5 5 5 5 5 5 7 13 11 9 8 3 3 4 4 5 3 3 4 4 3 2
5 5 5 6 6 4 3 3 2 1 1 3 3 4 5 5 6 5 5 5 6 6 5 6 6 5 5 7 7 7 6 6 4 2 3 4 6 5 4 3 3 3 3
5 5 5 5 6 4 4 4 4 4 2 3 4 5 5 4 5 5 5 5 5 5 4 4 5 5 6 8 10 7 6 5 4 4 3 4 4 5 4 4 4 4 4
5 5 5 5 6 5 5 4 4 4 4 4 4 3 3 3 4 5 4 7 6 7 8 8 7 4 7 9 11 11 12 12 10 6 6 6 6 6 6 5 5 5 5
Wind_Direction
19 25 11 359 349 337 326 313 260 207 194 170 170 164 165 160 156 163 169 177 166 124 116 123 121 95 104 120 283 6 338 306 319 321 327 309 259 252 205 209 250 209 155
7 12 7 2 355 349 340 327 318 273 215 195 186 174 165 166 160 165 162 158 164 155 140 140 142 142 142 174 233 244 29 298 277 223 255 312 319 294 251 200 209 267 161
3 2 1 359 352 349 345 336 322 309 267 207 185 182 164 157 154 157 144 143 142 144 146 152 157 172 173 193 213 217 210 224 255 246 195 190 233 285 295 238 199 215 205
6 0 2 358 352 349 347 339 332 323 308 250 190 176 170 168 166 157 148 148 151 152 154 164 176 190 191 197 213 217 210 210 229 249 240 220 203 181 285 306 248 205 203
5 3 3 359 355 354 349 343 338 335 332 321 199 180 175 162 153 143 140 138 133 136 149 168 198 213 203 210 221 226 210 208 218 227 237 245 255 227 206 263 298 292 211
359 3 3 3 1 1 355 352 351 353 352 357 20 163 160 147 143 134 132 120 109 92 76 87 285 279 242 227 226 214 213 217 224 231 227 221 223 230 218 223 248 268 267
0 3 7 7 7 3 0 360 3 8 9 23 35 64 98 114 124 121 119 119 112 107 109 128 208 264 263 247 216 210 220 220 218 223 227 217 221 222 212 218 240 247 272
1 5 11 11 6 4 7 7 11 19 24 36 48 58 67 73 86 98 106 109 108 109 124 178 222 234 249 273 234 228 256 239 223 222 220 204 229 220 205 202 207 239 258
2 7 12 11 7 7 11 13 21 29 33 42 53 61 69 77 84 87 89 94 102 135 185 214 218 211 202 247 258 186 264 233 242 268 276 220 228 226 229 212 190 190 220
4 9 10 9 7 10 14 18 25 32 35 38 46 58 58 65 75 80 80 84 105 144 205 227 222 201 184 199 225 296 339 0 256 138 287 267 241 232 229 226 218 201 201
3 6 9 7 9 18 21 20 21 28 33 38 44 49 50 51 60 67 69 63 33 347 276 265 251 205 191 189 168 216 214 253 265 211 212 220 218 211 226 223 220 217 199
2 5 7 8 14 19 17 15 17 24 28 32 39 43 43 44 41 34 24 9 323 295 277 271 271 236 193 182 171 191 188 222 257 269 240 221 191 198 218 213 222 220 211
360 2 4 10 14 14 11 13 15 19 24 26 30 37 33 29 20 4 338 309 291 280 270 264 266 256 200 191 176 179 199 215 220 219 236 264 157 184 197 198 214 216 224
2 6 6 8 13 18 20 14 14 17 29 33 32 33 26 8 347 335 318 299 287 283 283 276 279 280 237 248 239 214 207 221 220 194 186 178 78 61 39 59 45 77 245
10 10 8 10 22 30 33 28 33 32 37 41 36 26 20 7 359 355 341 334 342 346 349 0 10 19 26 27 18 357 334 292 259 223 182 124 110 102 81 63 39 32 8
11 6 15 19 29 35 40 37 39 43 44 43 37 30 32 30 26 24 23 23 24 19 17 22 38 41 33 24 22 8 343 333 322 298 165 146 153 154 158 165 176 165 55
10 4 16 24 26 30 44 53 46 44 45 48 43 37 36 36 32 28 25 34 44 36 32 31 39 46 34 23 14 5 334 308 307 314 310 227 152 159 186 198 208 216 208
9 1 6 23 27 23 39 56 59 48 40 40 47 42 36 34 34 35 35 35 41 46 42 33 36 45 35 20 9 354 319 290 292 299 304 310 115 129 75 158 219 211 185
4 354 356 17 27 20 29 49 60 56 42 33 40 42 36 30 27 30 38 37 36 43 54 39 32 36 33 20 10 359 325 324 312 310 352 32 62 51 42 3 350 53 107
4 350 352 12 17 13 22 44 54 53 43 31 31 35 36 39 31 22 19 26 31 29 50 51 39 38 31 23 16 7 353 352 347 352 45 64 74 68 43 15 25 35 31
11 357 351 360 353 359 23 52 52 55 55 40 32 33 29 50 49 26 20 22 25 24 26 36 34 39 36 22 19 14 10 352 348 7 37 52 50 54 43 29 48 61 1
13 3 347 339 334 11 31 55 64 62 75 65 47 51 51 44 45 40 32 29 21 26 27 21 19 21 29 23 8 8 9 360 5 19 29 34 28 33 34 46 62 35 8
11 355 341 343 351 23 31 40 71 58 101 84 60 72 77 70 50 43 39 31 26 25 22 17 14 16 23 12 4 1 4 6 16 34 38 30 27 27 55 59 41 24 41
358 353 7 5 343 350 31 49 40 325 128 111 79 77 74 76 69 48 44 43 27 20 15 15 12 10 20 12 360 353 360 7 16 21 43 48 51 55 61 60 48 47 52
357 10 17 345 330 357 42 55 24 341 15 93 87 84 81 86 89 73 44 48 59 39 22 6 6 14 13 1 359 7 8 4 11 9 32 44 48 46 44 46 45 44 44
5 5 3 348 352 11 34 52 27 348 20 68 71 72 87 97 121 123 97 54 65 62 58 46 36 45 23 6 14 21 24 28 34 49 48 45 43 45 46 48 45 43 41